EW8829 Weather Reports


time (UTC)temp
C
wind
direction
speed
KPH
gust
KPH
rain 1hr
cm
rain 24hr
cm
rain mn
cm
humidity
%
barometer
mb
20260905014627 18 13 0.0 1.6 0.00 0.43 0.43 97 1012.6
20260905014122 18 33 1.6 3.2 0.00 0.43 0.43 97 1012.7
20260905013619 18 62 1.6 3.2 0.00 0.43 0.43 97 1012.9
20260905013114 18 50 0.0 1.6 0.00 0.43 0.43 97 1012.9
20260905012609 18 42 1.6 1.6 0.00 0.43 0.43 97 1012.7
20260905012105 18 0 0.0 1.6 0.00 0.43 0.43 96 1012.9
20260905011600 18 316 0.0 1.6 0.00 0.43 0.43 96 1012.8
20260905011057 18 0 0.0 1.6 0.00 0.43 0.43 96 1012.6
20260905010555 18 37 0.0 0.0 0.00 0.43 0.43 96 1012.6
20260905010052 18 333 0.0 1.6 0.00 0.43 0.43 96 1012.7
20260905005548 18 29 0.0 1.6 0.00 0.43 0.43 96 1012.5
20260905005043 18 25 1.6 1.6 0.00 0.43 0.43 97 1012.3
20260905004538 18 49 0.0 0.0 0.00 0.43 0.43 97 1012.4
20260905004034 18 50 0.0 1.6 0.00 0.43 0.43 96 1012.2
20260905003529 18 37 0.0 1.6 0.00 0.43 0.43 96 1012.3
20260905003025 19 8 3.2 3.2 0.00 0.43 0.43 97 1012.3
20260905002520 19 103 0.0 1.6 0.00 0.43 0.43 96 1012.3
20260905002019 19 79 3.2 3.2 0.00 0.43 0.43 96 1012.4
20260905001514 19 37 0.0 1.6 0.00 0.43 0.43 95 1012.2
20260905001008 19 326 0.0 3.2 0.00 0.43 0.43 96 1012.2
20260905000504 19 66 0.0 0.0 0.00 0.43 0.43 94 1012.1
20260905000000 19 71 0.0 1.6 0.00 0.43 0.43 94 1011.8
20260904235455 19 50 0.0 3.2 0.00 0.43 0.43 94 1011.9
20260904234949 19 55 0.0 0.0 0.00 0.43 0.43 94 1012.0
20260904234443 19 50 0.0 1.6 0.00 0.43 0.43 94 1011.9
20260904233940 19 40 0.0 1.6 0.00 0.43 0.43 94 1012.0
20260904233434 20 44 1.6 1.6 0.00 0.43 0.43 94 1012.1
20260904232931 20 299 0.0 3.2 0.00 0.43 0.43 93 1012.0
20260904232427 20 22 0.0 1.6 0.00 0.43 0.43 93 1011.8
20260904231924 20 35 0.0 1.6 0.00 0.43 0.43 92 1012.0
20260904231423 20 37 0.0 0.0 0.00 0.43 0.43 92 1012.1
20260904230918 20 37 0.0 0.0 0.00 0.43 0.43 91 1012.1
20260904230417 20 26 1.6 1.6 0.00 0.43 0.43 91 1011.9
20260904225912 20 30 0.0 1.6 0.00 0.43 0.43 91 1011.6
20260904225410 20 309 0.0 1.6 0.00 0.43 0.43 90 1011.4
20260904224905 20 328 1.6 3.2 0.00 0.43 0.43 91 1011.8
20260904224401 20 343 0.0 0.0 0.00 0.43 0.43 88 1011.6
20260904223900 21 319 1.6 3.2 0.00 0.43 0.43 89 1011.7
20260904223359 21 6 0.0 1.6 0.00 0.43 0.43 88 1012.0
20260904222857 21 353 1.6 1.6 0.00 0.43 0.43 87 1011.8
20260904222356 21 346 1.6 3.2 0.00 0.43 0.43 84 1011.7
20260904221856 22 30 1.6 3.2 0.00 0.43 0.43 84 1011.6
20260904221351 22 318 0.0 3.2 0.00 0.43 0.43 83 1011.7
20260904220846 22 347 3.2 3.2 0.00 0.43 0.43 78 1011.6
20260904220345 22 304 3.2 3.2 0.00 0.43 0.43 81 1011.5
20260904215841 22 326 0.0 3.2 0.00 0.43 0.43 75 1011.7
20260904215336 23 323 1.6 1.6 0.00 0.43 0.43 72 1011.6
20260904214832 24 0 1.6 3.2 0.00 0.43 0.43 67 1011.6
20260904214327 24 357 1.6 3.2 0.00 0.43 0.43 66 1011.5
20260904213825 24 27 1.6 4.8 0.00 0.43 0.43 68 1011.6
20260904213321 23 22 3.2 4.8 0.00 0.43 0.43 73 1011.6
20260904212817 23 355 3.2 4.8 0.00 0.43 0.43 71 1011.8
20260904212312 24 328 1.6 4.8 0.00 0.43 0.43 71 1011.5
20260904211807 24 356 1.6 3.2 0.00 0.43 0.43 65 1011.6
20260904211301 24 10 4.8 6.4 0.00 0.43 0.43 64 1011.5
20260904210756 24 44 0.0 4.8 0.00 0.43 0.43 65 1011.5
20260904210256 25 24 0.0 3.2 0.00 0.43 0.43 66 1011.7
20260904205752 25 6 4.8 4.8 0.00 0.43 0.43 64 1011.8
20260904205248 25 18 1.6 4.8 0.00 0.43 0.43 66 1011.6
20260904204744 25 86 0.0 4.8 0.00 0.43 0.43 66 1011.7
20260904204240 24 359 3.2 4.8 0.00 0.43 0.43 71 1011.7
20260904203736 23 331 3.2 3.2 0.00 0.43 0.43 71 1011.8
20260904203232 23 3 3.2 3.2 0.00 0.43 0.43 66 1012.0
20260904202728 23 6 4.8 6.4 0.00 0.43 0.43 66 1012.0
20260904202225 24 61 1.6 4.8 0.00 0.43 0.43 66 1011.8
20260904201720 24 354 6.4 6.4 0.00 0.43 0.43 65 1011.9
20260904201219 25 2 1.6 3.2 0.00 0.43 0.43 65 1012.0
20260904200714 26 4 1.6 1.6 0.00 0.43 0.43 62 1012.3
20260904200209 25 348 1.6 3.2 0.00 0.43 0.43 70 1012.4
20260904195708 23 6 3.2 6.4 0.00 0.43 0.43 70 1012.3
20260904195201 24 357 4.8 4.8 0.00 0.43 0.43 65 1012.3
20260904194701 25 86 3.2 4.8 0.00 0.43 0.43 63 1012.1
20260904194155 25 307 6.4 8.0 0.00 0.43 0.43 65 1012.5
20260904193651 25 345 4.8 4.8 0.00 0.43 0.43 64 1012.7
20260904193147 24 3 3.2 4.8 0.00 0.43 0.43 65 1012.5
20260904192647 23 299 1.6 4.8 0.00 0.43 0.43 70 1012.5
20260904192142 23 343 0.0 3.2 0.00 0.43 0.43 65 1012.4
20260904191639 24 4 4.8 8.0 0.00 0.43 0.43 63 1012.6
20260904191135 24 349 4.8 11.3 0.00 0.43 0.43 64 1012.6
20260904190630 24 356 4.8 6.4 0.00 0.43 0.43 68 1012.5
20260904190126 23 3 4.8 8.0 0.00 0.43 0.43 65 1012.7
20260904185624 25 356 4.8 4.8 0.00 0.43 0.43 62 1012.6
20260904185118 25 350 1.6 3.2 0.00 0.43 0.43 66 1012.7
20260904184616 25 321 6.4 6.4 0.00 0.43 0.43 65 1012.7
20260904184112 25 7 6.4 9.7 0.00 0.43 0.43 60 1012.7
20260904183608 26 266 11.3 14.5 0.00 0.43 0.43 59 1012.7
20260904183102 26 267 6.4 9.7 0.00 0.43 0.43 59 1012.8
20260904182558 25 284 4.8 6.4 0.00 0.43 0.43 63 1012.7
20260904182052 25 66 4.8 6.4 0.00 0.43 0.43 61 1012.8
20260904181548 26 260 8.0 8.0 0.00 0.43 0.43 60 1013.0
20260904181048 25 8 4.8 8.0 0.00 0.43 0.43 62 1013.0
20260904180543 25 34 3.2 9.7 0.00 0.43 0.43 61 1013.0
20260904180038 25 40 1.6 6.4 0.00 0.43 0.43 64 1012.9
20260904175532 25 309 4.8 14.5 0.00 0.43 0.43 61 1013.2
20260904175031 25 14 6.4 6.4 0.00 0.43 0.43 63 1013.0
20260904174526 25 10 8.0 8.0 0.00 0.43 0.43 64 1013.4
20260904174023 25 14 1.6 3.2 0.00 0.43 0.43 68 1013.2
20260904173522 25 356 3.2 14.5 0.00 0.43 0.43 64 1013.2
20260904173018 24 224 4.8 9.7 0.00 0.43 0.43 66 1013.3
20260904172514 23 35 3.2 3.2 0.00 0.43 0.43 72 1013.5
20260904172012 23 13 3.2 4.8 0.00 0.43 0.43 73 1013.4
20260904171508 24 9 4.8 6.4 0.00 0.43 0.43 72 1013.3
20260904171004 24 18 4.8 6.4 0.00 0.43 0.43 72 1013.4
20260904170459 23 142 0.0 4.8 0.00 0.43 0.43 73 1013.4
20260904165954 23 264 3.2 3.2 0.00 0.43 0.43 79 1013.5
20260904165453 23 12 3.2 3.2 0.00 0.43 0.43 76 1013.6
20260904164953 23 359 3.2 4.8 0.00 0.43 0.43 74 1013.5
20260904164448 23 359 4.8 6.4 0.00 0.43 0.43 71 1013.5
20260904163944 23 29 3.2 3.2 0.00 0.43 0.43 77 1013.2
20260904163438 23 87 4.8 6.4 0.00 0.43 0.43 77 1013.2
20260904162937 23 339 0.0 3.2 0.00 0.43 0.43 77 1013.1
20260904162433 23 254 4.8 8.0 0.00 0.43 0.43 73 1013.3
20260904161928 24 71 0.0 4.8 0.00 0.43 0.43 72 1013.5
20260904161423 23 315 1.6 6.4 0.00 0.43 0.43 75 1013.6
20260904160919 23 45 4.8 6.4 0.00 0.43 0.43 75 1013.6
20260904160414 23 0 4.8 4.8 0.00 0.43 0.43 76 1013.6
20260904155904 24 256 3.2 9.7 0.00 0.43 0.43 71 1013.6
20260904155403 24 329 1.6 4.8 0.00 0.43 0.43 72 1013.5
20260904154902 23 344 3.2 11.3 0.00 0.43 0.43 78 1013.5
20260904154357 22 271 8.0 12.9 0.00 0.43 0.43 77 1013.4
20260904153852 22 311 6.4 8.0 0.00 0.43 0.43 78 1013.8
20260904153348 23 345 1.6 6.4 0.00 0.43 0.43 76 1013.3
20260904152844 23 21 3.2 6.4 0.00 0.43 0.43 75 1013.5
20260904152338 23 6 3.2 6.4 0.00 0.43 0.43 77 1013.5
20260904151833 23 359 3.2 6.4 0.00 0.43 0.43 75 1013.7
20260904151332 23 126 3.2 9.7 0.00 0.43 0.43 77 1013.7
20260904150829 23 345 3.2 4.8 0.00 0.43 0.43 77 1013.7
20260904150323 23 102 3.2 4.8 0.00 0.43 0.43 78 1013.9
20260904145821 22 5 1.6 6.4 0.00 0.43 0.43 76 1013.6
20260904145318 23 349 3.2 4.8 0.00 0.43 0.43 78 1013.5
20260904144813 23 8 3.2 3.2 0.00 0.43 0.43 79 1013.9
20260904144308 23 15 1.6 3.2 0.00 0.43 0.43 78 1013.6
20260904143803 23 4 3.2 4.8 0.00 0.43 0.43 80 1013.4
20260904143300 22 357 4.8 6.4 0.00 0.43 0.43 79 1013.7
20260904142756 22 19 0.0 6.4 0.00 0.43 0.43 79 1013.6
20260904142252 22 0 3.2 4.8 0.00 0.43 0.43 82 1013.7
20260904141752 22 10 4.8 6.4 0.00 0.43 0.43 81 1013.4
20260904141247 22 59 0.0 6.4 0.00 0.43 0.43 83 1013.6
20260904140742 22 68 6.4 6.4 0.00 0.43 0.43 84 1013.5
20260904140238 22 328 6.4 6.4 0.00 0.43 0.43 85 1013.8
20260904135736 21 356 4.8 8.0 0.00 0.43 0.43 85 1013.7
20260904135232 21 334 3.2 9.7 0.00 0.43 0.43 85 1013.7
20260904134728 21 358 3.2 4.8 0.00 0.43 0.43 87 1013.8
20260904134227 21 306 8.0 8.0 0.00 0.43 0.43 85 1013.8
20260904133722 21 33 1.6 6.4 0.00 0.43 0.43 85 1013.5
20260904133219 21 325 0.0 6.4 0.00 0.43 0.43 87 1013.5
20260904132718 21 13 3.2 4.8 0.00 0.43 0.43 88 1013.2
20260904132214 21 5 6.4 6.4 0.00 0.43 0.43 87 1013.8
20260904131713 22 11 1.6 4.8 0.00 0.43 0.43 87 1013.4
20260904131209 21 2 3.2 3.2 0.00 0.43 0.43 91 1013.6
20260904130709 20 13 3.2 6.4 0.00 0.43 0.43 89 1013.3
20260904130208 21 29 1.6 3.2 0.00 0.43 0.43 89 1013.5
20260904125704 20 356 3.2 4.8 0.00 0.43 0.43 90 1013.5
20260904125159 20 9 0.0 4.8 0.00 0.43 0.43 92 1013.7
20260904124654 20 302 3.2 6.4 0.00 0.43 0.43 93 1013.6
20260904124150 20 346 3.2 4.8 0.00 0.43 0.43 93 1013.5
20260904123644 20 318 0.0 4.8 0.00 0.43 0.43 94 1013.9
20260904123140 20 350 0.0 3.2 0.00 0.43 0.43 96 1013.6
20260904122640 19 347 1.6 4.8 0.00 0.43 0.43 98 1013.4
20260904122135 19 13 0.0 3.2 0.00 0.43 0.43 99 1013.4
20260904121630 18 35 3.2 3.2 0.00 0.43 0.43 99 1013.4
20260904121126 18 66 3.2 3.2 0.00 0.43 0.43 99 1013.5
20260904120623 19 124 0.0 1.6 0.00 0.43 0.43 99 1013.6
20260904120119 18 31 3.2 3.2 0.00 0.43 0.43 99 1013.4
20260904115618 18 351 1.6 3.2 0.00 0.43 0.43 99 1013.6
20260904115113 18 50 0.0 3.2 0.00 0.43 0.43 99 1013.4
20260904114608 18 22 0.0 1.6 0.00 0.43 0.43 99 1013.2
20260904114103 18 89 0.0 0.0 0.00 0.43 0.43 99 1013.6
20260904113603 18 39 1.6 3.2 0.00 0.43 0.43 99 1013.2
20260904113102 18 80 3.2 3.2 0.00 0.43 0.43 99 1013.4
20260904112557 18 39 1.6 3.2 0.00 0.43 0.43 99 1013.4
20260904112053 18 48 3.2 4.8 0.00 0.43 0.43 99 1013.3
20260904111549 18 43 0.0 3.2 0.00 0.43 0.43 99 1013.3
20260904111044 18 358 1.6 3.2 0.00 0.43 0.43 99 1013.3
20260904110543 18 20 3.2 3.2 0.00 0.43 0.43 99 1013.2
20260904110034 18 14 1.6 3.2 0.00 0.43 0.43 99 1013.1
20260904105527 18 28 3.2 3.2 0.00 0.43 0.43 99 1012.9
20260904105023 18 11 3.2 3.2 0.00 0.43 0.43 99 1013.0
20260904104518 18 15 3.2 4.8 0.00 0.43 0.43 99 1013.2
20260904104014 18 45 3.2 3.2 0.00 0.43 0.43 99 1013.2
20260904103509 18 11 3.2 3.2 0.00 0.43 0.43 99 1013.2
20260904103005 18 214 0.0 1.6 0.00 0.43 0.43 99 1012.9
20260904102501 18 33 0.0 3.2 0.00 0.43 0.43 99 1012.8
20260904101955 18 48 1.6 3.2 0.00 0.43 0.43 99 1012.8
20260904101453 18 322 0.0 0.0 0.00 0.43 0.43 99 1012.9
20260904100948 18 50 0.0 1.6 0.00 0.43 0.43 99 1012.7
20260904100444 18 11 1.6 3.2 0.00 0.43 0.43 99 1012.9
20260904095943 18 43 3.2 3.2 0.00 0.43 0.43 99 1012.8
20260904095439 18 55 0.0 1.6 0.00 0.43 0.43 99 1012.7
20260904094938 18 66 1.6 3.2 0.00 0.43 0.43 99 1012.8
20260904094434 18 19 1.6 1.6 0.00 0.43 0.43 99 1012.7
20260904093924 18 23 1.6 3.2 0.00 0.43 0.43 99 1012.8
20260904093419 18 55 1.6 3.2 0.00 0.43 0.43 99 1012.7
20260904092909 18 48 0.0 1.6 0.00 0.43 0.43 99 1012.6
20260904092406 18 54 0.0 1.6 0.00 0.43 0.43 99 1012.5
20260904091902 18 126 0.0 3.2 0.00 0.43 0.43 99 1012.6
20260904091357 18 106 0.0 1.6 0.00 0.43 0.43 99 1012.8
20260904090852 18 133 3.2 3.2 0.00 0.43 0.43 99 1012.6
20260904090347 18 49 0.0 1.6 0.00 0.43 0.43 99 1012.6
20260904085843 18 12 0.0 1.6 0.00 0.43 0.43 99 1012.6
20260904085337 18 57 1.6 3.2 0.00 0.43 0.43 99 1012.6
20260904084832 18 16 1.6 3.2 0.00 0.43 0.43 99 1012.5
20260904084328 18 85 3.2 3.2 0.00 0.43 0.43 99 1012.5
20260904083824 18 114 3.2 3.2 0.00 0.43 0.43 99 1012.3
20260904083320 19 214 0.0 3.2 0.00 0.43 0.43 99 1012.4
20260904082815 19 239 1.6 1.6 0.00 0.43 0.43 99 1012.3
20260904082310 19 142 0.0 0.0 0.00 0.43 0.43 99 1012.2
20260904081805 19 89 0.0 1.6 0.00 0.43 0.43 99 1012.2
20260904081301 19 11 1.6 1.6 0.00 0.43 0.43 99 1012.0
20260904080756 19 336 0.0 1.6 0.00 0.43 0.43 99 1011.7
20260904080251 19 29 0.0 0.0 0.00 0.43 0.43 99 1011.8
20260904075748 19 19 0.0 1.6 0.00 0.43 0.43 99 1011.9
20260904075242 19 135 0.0 0.0 0.00 0.43 0.43 99 1011.8
20260904074742 19 50 0.0 0.0 0.00 0.43 0.43 99 1011.7
20260904074236 19 45 0.0 0.0 0.00 0.43 0.43 99 1011.7
20260904073731 19 37 0.0 0.0 0.00 0.43 0.43 99 1011.6
20260904073222 19 10 1.6 3.2 0.00 0.43 0.43 99 1011.6
20260904072718 19 78 3.2 3.2 0.00 0.43 0.43 99 1011.4
20260904072212 19 64 0.0 1.6 0.00 0.43 0.43 99 1011.5
20260904071708 19 129 0.0 0.0 0.00 0.43 0.43 99 1011.7
20260904071203 19 22 0.0 0.0 0.00 0.43 0.43 99 1011.6
20260904070702 19 37 0.0 1.6 0.00 0.43 0.43 99 1011.5
20260904070201 20 72 1.6 1.6 0.00 0.43 0.43 99 1011.3
20260904065656 20 309 0.0 0.0 0.00 0.43 0.43 99 1011.5
20260904065154 20 304 0.0 0.0 0.00 0.43 0.43 99 1011.7
20260904064653 20 296 0.0 1.6 0.00 0.43 0.43 99 1011.6
20260904064149 20 309 0.0 0.0 0.00 0.43 0.43 99 1011.5
20260904063644 19 50 0.0 0.0 0.00 0.43 0.43 99 1011.4
20260904063140 20 37 0.0 0.0 0.00 0.43 0.43 99 1011.7
20260904062636 20 35 0.0 3.2 0.00 0.43 0.43 99 1011.6
20260904062132 20 15 1.6 1.6 0.00 0.43 0.43 99 1011.7
20260904061627 20 321 0.0 1.6 0.00 0.43 0.43 99 1011.6
20260904061123 20 50 0.0 0.0 0.00 0.43 0.43 99 1011.5
20260904060620 20 89 0.0 1.6 0.00 0.43 0.43 99 1011.6
20260904060115 20 66 0.0 1.6 0.00 0.43 0.43 99 1011.9
20260904055610 20 62 1.6 1.6 0.00 0.43 0.43 99 1011.7
20260904055105 20 41 1.6 3.2 0.00 0.43 0.43 99 1011.9
20260904054601 20 16 1.6 3.2 0.00 0.43 0.43 99 1011.9
20260904054056 20 0 0.0 1.6 0.00 0.43 0.43 99 1011.7
20260904053556 20 76 0.0 1.6 0.00 0.43 0.43 99 1012.0
20260904053051 20 52 0.0 3.2 0.00 0.43 0.43 99 1011.8
20260904052548 20 32 0.0 1.6 0.00 0.43 0.43 99 1011.8
20260904052044 20 304 0.0 3.2 0.00 0.43 0.43 99 1011.9
20260904051540 21 37 0.0 1.6 0.00 0.43 0.43 99 1011.8
20260904051039 21 50 0.0 3.2 0.00 0.43 0.43 99 1012.2
20260904050535 21 21 1.6 3.2 0.00 0.43 0.43 99 1012.2
20260904050031 21 322 0.0 0.0 0.05 0.43 0.43 99 1012.1
20260904045526 21 358 1.6 3.2 0.00 0.41 0.41 99 1012.2
20260904045021 21 126 1.6 4.8 0.00 0.41 0.41 99 1012.2
20260904044517 21 343 0.0 0.0 0.00 0.41 0.41 99 1012.4
20260904044013 21 29 0.0 3.2 0.00 0.41 0.41 99 1012.4
20260904043509 21 33 1.6 3.2 0.05 0.41 0.41 99 1012.3
20260904043004 21 18 3.2 3.2 0.43 0.41 0.41 99 1012.4
20260904042500 21 249 0.0 3.2 1.19 0.41 0.41 99 1012.2
20260904041949 21 76 3.2 3.2 1.14 0.30 0.30 99 1012.4
20260904041446 21 75 3.2 3.2 0.53 0.18 0.18 99 1012.3
20260904040941 21 29 1.6 3.2 0.71 0.13 0.13 99 1012.6
20260904040441 21 135 0.0 3.2 1.68 0.08 0.08 99 1012.5
20260904035937 21 87 1.6 6.4 1.45 1.04 1.04 99 1012.1
20260904035433 21 15 0.0 1.6 0.53 0.84 0.84 99 1012.7
20260904034932 21 118 3.2 3.2 0.66 0.81 0.81 99 1012.1
20260904034427 21 278 1.6 1.6 0.53 0.74 0.74 99 1012.4
20260904033923 21 336 0.0 3.2 0.48 0.69 0.69 99 1012.4
20260904033419 21 62 0.0 3.2 0.30 0.66 0.66 99 1012.2
20260904032915 21 50 0.0 0.0 0.18 0.61 0.61 99 1012.4
20260904032410 21 66 0.0 0.0 0.18 0.61 0.61 99 1012.2
20260904031904 21 62 0.0 1.6 0.05 0.56 0.56 99 1012.1
20260904031400 21 318 3.2 3.2 0.18 0.56 0.56 99 1012.1
20260904030856 21 352 0.0 0.0 0.30 0.56 0.56 99 1012.0
20260904030351 21 19 0.0 0.0 0.23 0.53 0.53 99 1012.2
20260904025847 21 359 3.2 3.2 0.23 0.51 0.51 99 1012.2
20260904025342 21 62 0.0 1.6 0.13 0.48 0.48 99 1012.2
20260904024842 21 15 1.6 3.2 0.00 0.46 0.46 99 1012.2
20260904024337 21 0 1.6 3.2 0.00 0.46 0.46 99 1012.0
20260904023834 21 30 1.6 3.2 0.00 0.46 0.46 99 1011.9
20260904023330 21 44 1.6 3.2 0.00 0.46 0.46 99 1011.9
20260904022828 21 15 3.2 3.2 0.00 0.46 0.46 99 1012.0
20260904022326 21 89 0.0 0.0 0.00 0.46 0.46 99 1012.2
20260904021822 21 15 0.0 0.0 0.00 0.46 0.46 99 1012.1
20260904021322 21 346 0.0 1.6 0.00 0.46 0.46 99 1012.3
20260904020817 21 309 0.0 1.6 0.00 0.46 0.46 99 1012.5
20260904020312 21 311 3.2 3.2 0.00 0.46 0.46 99 1012.7
20260904015810 21 7 1.6 1.6 0.00 0.46 0.46 99 1012.6
20260904015307 21 89 0.0 0.0 0.00 0.46 0.46 99 1012.6